RH
62 67 69 66 57 55 53 49 40 38 37 32 28 23 22 22 21 22 24 24 24 24
65 71 72 61 61 54 54 46 39 37 35 32 28 23 22 21 21 24 27 25 23 23
73 76 67 64 60 56 52 45 40 37 35 31 27 22 22 20 23 26 28 27 23 25
75 76 66 65 59 58 52 45 41 37 34 29 23 22 22 23 24 26 29 25 24 23
78 77 70 64 63 59 53 49 42 37 33 28 25 25 25 25 26 26 29 25 25 24
81 81 73 70 64 62 56 48 44 36 31 30 27 27 24 27 29 29 28 27 27 26
87 81 78 70 67 64 57 48 40 35 33 32 28 25 26 28 31 33 31 31 29 28
91 86 79 75 67 64 54 39 38 36 35 30 27 24 29 30 33 35 34 32 31 30
90 86 79 72 68 56 41 39 38 38 33 28 27 27 31 33 36 37 38 34 33 29
89 82 77 72 59 50 45 41 37 39 31 30 30 30 36 40 43 43 43 37 33 28
89 83 77 64 60 55 49 43 38 37 37 36 33 35 43 48 47 49 47 40 37 30
84 82 70 64 60 54 49 43 37 44 44 42 42 41 51 54 52 55 51 42 38 31
82 74 63 63 59 56 48 48 43 48 51 46 47 47 57 58 53 55 48 42 37 32
75 71 66 62 61 55 53 54 51 50 49 45 49 53 58 57 53 51 44 41 38 34